{"data":{"norad_id":48396,"intl_designator":"2021-038AV","name":"STARLINK-2575","alt_names":[],"object_type":"PAYLOAD","status":"ACTIVE","operator":null,"country":"US","launch_date":"2021-05-04","launch_site_code":"AFETR","launch_vehicle":null,"mission":null,"orbit_class":"UNKNOWN","rcs_meters":null,"size_class":null,"mass_kg":null,"dimensions":null,"purposes":["comms"],"wikipedia_slug":null,"has_3d_model":false,"image_url":null,"decayed_at":null,"tle_current":{"epoch":"2026-05-24T22:35:34.559808Z","epoch_age_seconds":76229,"freshness":"FRESH","line1":"1 48396U 21038AV  26144.94137222  .00006606  00000+0  22428-3 0  9999","line2":"2 48396  53.1601 337.8624 0001141  85.4615 274.6517 15.31724849280340","mean_motion":15.31724849,"eccentricity":0.0001141,"inclination_deg":53.1601,"raan_deg":337.8624,"arg_perigee_deg":85.4615,"mean_anomaly_deg":274.6517,"bstar":0.00022428,"rev_number":28034,"period_min":94.011662795711,"perigee_km":469.88447423762,"apogee_km":471.44737106457,"semimajor_km":6848.8029226511,"source":"CELESTRAK","updated_at":"2026-05-25T13:38:16.710658Z"}}}